Regional Weather Roundup
Issued by NWS

Home | Current Version | Previous Version | Graphics & Text | Print | Product List | Glossary On
Versions: 1 2 3 4 5 6 7 8 9 10 11 12 13 14 15 16 17 18 19 20 21 22 23 24 25 26 27
000
ASUS45 KTFX 022110
RWRMT
MONTANA REGIONAL WEATHER ROUNDUP
NATIONAL WEATHER SERVICE GREAT FALLS MT
200 PM MST FRI DEC 02 2016

NOTE: "FAIR" INDICATES FEW OR NO CLOUDS BELOW 12000 FEET WITH NO
SIGNIFICANT WEATHER AND/OR OBSTRUCTIONS TO VISIBILITY.

MTZ001>007-043-022200-
WEST OF THE DIVIDE

CITY           SKY/WX    TMP DP  RH WIND       PRES   REMARKS
KALISPELL      CLOUDY    35  23  61 SW9       30.18F WCI  28
MISSOULA       CLOUDY    33  29  85 CALM      30.24F
BUTTE          CLOUDY    28  12  51 NW7       30.13F WCI  21
MULLAN PASS    CLOUDY    21  18  88 VRB5      30.12F
ANACONDA         N/A     28  12  50 W13       30.14F WCI  18
DEER LODGE       N/A     36  18  48 SE3       30.17F
EUREKA           N/A     36  25  64 E8        30.16F WCI  29
HAMILTON         N/A     37  12  35 SW9       30.23F WCI  31
LIBBY            N/A     34  30  86 CALM      30.18F
RONAN            N/A     36  20  52 CALM      30.24F
$$

MTZ008-052>055-022200-
SOUTHWEST MONTANA

CITY           SKY/WX    TMP DP  RH WIND       PRES   REMARKS
BOZEMAN        MOSUNNY   33  19  56 E6        30.15F WCI  28
DILLON         SUNNY     34  11  38 SW16      30.14F WCI  24
W YELLOWSTONE  MOSUNNY   23  14  68 SW8       30.15S WCI  14
ENNIS          SUNNY     30  14  51 SE10      30.20F WCI  21
THREE FORKS      N/A     35  35 100 CALM      30.13F
TWIN BRIDGES     N/A     34  12  40 E10       30.13F WCI  26
$$

MTZ009-010-012-014-046-048-049-054-022200-
EAST SLOPES AND CENTRAL MONTANA

CITY           SKY/WX    TMP DP  RH WIND       PRES   REMARKS
CUT BANK       SUNNY     35  18  49 W32G40    29.94F WCI  21
GREAT FALLS    SUNNY     33  21  61 SW21      30.03F WCI  21
MALMSTROM AFB  SUNNY     32  25  73 S16       30.05F WCI  22
HELENA         PTSUNNY   36  14  40 W14G26    30.14F WCI  27
AUGUSTA          N/A     34  16  47 W25G33    29.99F WCI  21
BOWMANS CRNR     N/A     33  17  53 SW22G28   30.00F WCI  20
CHOTEAU          N/A     37  18  44 W10G17    30.00F WCI  30
CONRAD           N/A     39  31  73 S6        30.00F
FAIRFIELD        N/A     37  19  47 SW17      29.99F WCI  28
POWER            N/A     35  22  57 SW18G24   30.00F WCI  25
RAYNESFORD       N/A     33  20  58 SW14G23   30.05F WCI  23
ULM              N/A     34  20  56 SW13G22   30.05F WCI  25
$$

MTZ011-013-016-021-045-047-050-051-022200-
NORTH CENTRAL MONTANA

CITY           SKY/WX    TMP DP  RH WIND       PRES   REMARKS
HAVRE          SUNNY     37  29  72 SW16      30.02F WCI  28
LEWISTOWN      SUNNY     34  20  56 SW9       30.04F WCI  27
N BAR RANCH      N/A     37  18  44 CALM      30.04F
CHINOOK          N/A     39  25  56 SW12G18   30.03F WCI  32
DENTON           N/A     37  21  52 SW7G20    30.01F WCI  31
GEYSER           N/A     33  20  59 W20G26    30.02F WCI  21
GRASS RANGE      N/A     38  20  48 W6        30.01F
JUDITH GAP       N/A     30  17  56 SW22G35   30.04F WCI  17
ROY              N/A     39  18  43 MISG      30.03F
STANFORD         N/A     36  19  49 W7        30.02F WCI  30
WINIFRED         N/A     37  22  54 MISG      30.03F
$$

MTZ017>020-022>027-061-062-022200-
NORTHEAST MONTANA

CITY           SKY/WX    TMP DP  RH WIND       PRES   REMARKS
GLASGOW        MOSUNNY   37  26  64 SW6       30.08F
JORDAN           N/A     43  24  47 W14       30.08F
SIDNEY         CLOUDY    31  28  89 S7        30.15F WCI  24
WOLF POINT     PTSUNNY   39  28  64 VRB6      30.11F
PLENTYWOOD       N/A     28  27  93 S6        30.11S WCI  22
POPLAR           N/A     36  27  69 S5        30.13F
$$

MTZ028>42-056>058-022200-
SOUTHCENTRAL AND SOUTHEAST MONTANA

CITY           SKY/WX    TMP DP  RH WIND       PRES   REMARKS
BAKER          CLOUDY    30  25  81 W9        30.16S WCI  22
BILLINGS       MOSUNNY   41  17  38 SW15      30.11F
LIVINGSTON     SUNNY     34  17  50 W15       30.10F WCI  24
MILES CITY     SUNNY     40  28  62 CALM      30.14F
BIG TIMBER     SUNNY     36  14  41 W25G32    30.10F WCI  23
FORSYTH          N/A     39  25  56 W7        30.14F
HARLOWTON        N/A     35  12  38 W25G33    30.06F WCI  23
LAUREL           N/A     41  14  33 SW7       30.09F
ROUNDUP          N/A     42  16  35 SW14      30.00F
$$

REGIONAL REPORTS...DAKOTAS

CITY           SKY/WX    TMP DP  RH WIND       PRES   REMARKS
WILLISTON      CLOUDY    31  25  78 SW7       30.15F WCI  24
MINOT          CLOUDY    29  24  82 S12       30.17F WCI  19
DICKINSON      CLOUDY    28  24  85 W3        30.14S
BEACH          CLOUDY    30  28  93 SW10      30.17S WCI  21
CROSBY         CLOUDY    30  28  93 SW8       30.15F WCI  23
TIOGA          CLOUDY    28  28 100 SW7       30.15S WCI  21
WATFORD CITY   CLOUDY    28  25  86 SW10      30.15F WCI  19
BISMARCK       CLOUDY    26  20  77 S7        30.25R WCI  18
GRAND FORKS    CLOUDY    33  21  61 NW9       30.25F WCI  25
FARGO          CLOUDY    31  21  66 NW7       30.27R WCI  24
BUFFALO SD       N/A     37  28  70 W10       30.10S WCI  30
RAPID CITY     MOSUNNY   40  23  50 N14       30.17F
$$

REGIONAL REPORTS...WYOMING/IDAHO/WASHINGTON

CITY           SKY/WX    TMP DP  RH WIND       PRES   REMARKS
GILLETTE       SUNNY     33  20  58 W3        30.14F
SHERIDAN       SUNNY     39  21  48 S7        30.14F
BUFFALO WY     PTSUNNY   37  19  48 SE13      30.13F WCI  29
CODY           SUNNY     36   7  29 S9        30.10F WCI  29
YELLOWSTONE LA   N/A     21   8  57 VRB3      30.12F
IDAHO FALLS    CLOUDY    25  21  85 SW9       30.28F WCI  15
SALMON         SUNNY     36  16  44 NW6       30.22F WCI  31
BOISE          SUNNY     36  25  64 SW6       30.36F WCI  31
SPOKANE        CLOUDY    35  31  85 S9        30.22F WCI  28
$$

REGIONAL REPORTS...ALBERTA

CITY           SKY/WX    TMP DP  RH WIND       PRES   REMARKS
EDMONTON       PTSUNNY   27  23  86 S8        29.78F WCI  18
CALGARY        PTSUNNY   30  21  69 S6        29.75F WCI  24
LETHBRIDGE     MOSUNNY   41  19  42 W33G44    29.84F
MEDICINE HAT   MOSUNNY   41  25  52 S13G21    29.91F
WATERTON GATE    N/A     32  19  59 SW29G41     N/A  WCI  18
CARDSTON         N/A     37  19  48 W18G31      N/A  WCI  27
MILK RIVER       N/A     39  21  48 SW22G28     N/A  WCI  29
ONEFOUR          N/A     37  27  65 SW7         N/A
$$

REGIONAL REPORTS...SASKATCHEWAN

CITY           SKY/WX    TMP DP  RH WIND       PRES   REMARKS
SWIFT CURRENT  CLOUDY    23  23 100 SW8       29.97F WCI  14
REGINA         CLOUDY    27  23  86 S3        30.08F
SASKATOON      FLURRIES  27  23  86 SW7       30.06F WCI  19
CYPRESS HILLS    N/A     27  25  93 S8          N/A  WCI  18
ROCKGLEN         N/A     27  25  93 MISG        N/A
ASSINIBOIA       N/A     28  27  93 S12G18      N/A  WCI  18
$$




USA.gov is the U.S. government's official web portal to all federal, state and local government web resources and services.